1519696800.7,61425,3.75,71568.0,-22.81,-28.09,-27.29,0,*60
1519696802.0,61426,3.75,71572.3,-22.81,-28.09,-27.39,0,*62
1519696803.27,61427,3.75,71576.8,-22.81,-28.09,-27.29,0,*62
1519696804.55,61428,3.75,71574.3,-22.81,-28.05,-27.29,0,*61
1519696805.83,61429,3.75,71574.8,-22.81,-28.05,-27.29,0,*60
1519696807.1,61430,3.75,71580.3,-22.81,-27.93,-27.23,0,*62
1519696808.38,61431,3.75,71574.3,-22.81,-27.93,-27.23,0,*63
1519696809.62,61432,3.75,71582.0,-22.81,-27.89,-27.13,0,*68
1519696810.92,61433,3.75,71578.0,-22.81,-28.05,-27.23,0,*61
1519696812.19,61434,3.75,71574.0,-22.81,-27.93,-27.23,0,*66
1519696813.49,61435,3.75,71576.3,-22.81,-28.09,-27.23,0,*6B
1519696814.79,61436,3.75,71578.8,-22.81,-28.09,-27.39,0,*63
1519696816.07,61437,3.75,71582.0,-22.81,-28.05,-27.29,0,*6F
1519696817.34,61438,3.75,71576.8,-22.81,-28.09,-27.29,0,*6C
1519696818.62,61439,3.75,71586.0,-22.81,-28.09,-27.29,0,*6D
1519696819.92,61440,3.69,71586.3,-22.81,-28.05,-27.39,0,*6E
1519696821.22,61441,3.75,71582.5,-22.81,-28.05,-27.39,0,*6F
1519696822.52,61442,3.75,71584.3,-22.81,-28.05,-27.39,0,*6C
1519696823.8,61443,3.75,71582.0,-22.81,-28.09,-27.29,0,*60
1519696825.07,61444,3.75,71580.0,-22.81,-28.15,-27.39,0,*6B
1519696826.35,61445,3.75,71574.5,-22.81,-28.09,-27.29,0,*66
1519696827.62,61446,3.75,71574.8,-22.81,-28.09,-27.29,0,*65
1519696828.9,61447,3.75,71572.3,-22.81,-28.09,-27.29,0,*64
1519696830.19,61448,3.75,71574.8,-22.81,-28.09,-27.39,0,*6A
1519696831.46,61449,3.75,71574.5,-22.81,-28.15,-27.45,0,*6D
1519696832.73,61450,3.75,71578.3,-22.81,-28.25,-27.55,0,*67
1519696833.98,61451,3.75,71572.3,-22.81,-28.31,-27.55,0,*63
1519696835.25,61452,3.75,71568.0,-22.81,-28.25,-27.55,0,*65
1519696836.55,61453,3.75,71562.5,-22.81,-28.25,-27.45,0,*65
1519696837.82,61454,3.75,71564.5,-22.81,-28.25,-27.55,0,*63
1519696839.09,61455,3.75,71562.5,-22.81,-28.15,-27.45,0,*60
1519696840.36,61456,3.75,71566.0,-22.81,-28.15,-27.39,0,*68
1519696841.66,61457,3.75,71558.8,-22.81,-28.25,-27.39,0,*6A
1519696842.9,61458,3.75,71566.5,-22.81,-28.15,-27.55,0,*6C
1519696844.18,61459,3.75,71562.3,-22.81,-28.25,-27.55,0,*6E
1519696845.42,61460,3.75,71558.5,-22.81,-28.15,-27.55,0,*67
1519696846.72,61461,3.75,71564.5,-22.77,-28.09,-27.39,0,*68
1519696847.99,61462,3.75,71552.8,-22.77,-28.21,-27.51,0,*6F
1519696849.3,61463,3.75,71552.3,-22.77,-28.21,-27.39,0,*60
1519696850.59,61464,3.75,71552.8,-22.81,-28.25,-27.45,0,*61
1519696851.84,61465,3.75,71558.5,-22.81,-28.15,-27.55,0,*62
1519696853.11,61466,3.75,71558.8,-22.77,-28.21,-27.55,0,*6F
1519696854.36,61467,3.75,71558.5,-22.81,-28.15,-27.55,0,*60
1519696855.63,61468,3.75,71554.0,-22.77,-28.09,-27.51,0,*6F
1519696856.9,61469,3.75,71578.5,-22.77,-28.21,-27.51,0,*64
1519696858.18,61470,3.75,71564.3,-22.77,-28.21,-27.51,0,*6C
1519696859.48,61471,3.69,71566.8,-22.77,-28.21,-27.39,0,*63
1519696860.75,61472,3.75,71566.0,-22.77,-28.21,-27.51,0,*6E
1519696862.03,61473,3.75,71566.5,-22.77,-28.21,-27.51,0,*6F
1519696863.31,61474,3.75,71572.0,-22.77,-28.21,-27.51,0,*68
1519696864.58,61475,3.75,71568.0,-22.77,-28.21,-27.51,0,*69
1519696865.86,61476,3.75,71568.3,-22.77,-28.25,-27.51,0,*6E
1519696867.13,61477,3.75,71570.3,-22.77,-28.25,-27.55,0,*6B
1519696868.43,61478,3.75,71568.0,-22.77,-28.25,-27.39,0,*6E
1519696869.71,61479,3.75,71574.8,-22.77,-28.25,-27.55,0,*65
1519696870.98,61480,3.75,71558.3,-22.77,-28.25,-27.51,0,*67
1519696872.26,61481,3.75,71554.5,-22.77,-28.25,-27.51,0,*66
1519696873.53,61482,3.75,71570.0,-22.77,-28.25,-27.55,0,*61
1519696874.78,61483,3.75,71570.0,-22.77,-28.37,-27.55,0,*63
1519696876.03,61484,3.75,71562.0,-22.77,-28.37,-27.55,0,*64
1519696877.28,61485,3.75,71570.8,-22.77,-28.37,-27.55,0,*65
1519696878.53,61486,3.75,71568.8,-22.77,-28.37,-27.67,0,*67
1519696879.78,61487,3.75,71572.0,-22.75,-28.31,-27.61,0,*64
1519696881.0,61488,3.75,71570.0,-22.75,-28.31,-27.67,0,*6D
1519696882.3,61489,3.75,71568.5,-22.77,-28.43,-27.83,0,*61
1519696883.52,61490,3.75,71576.3,-22.75,-28.31,-27.67,0,*64
1519696884.79,61491,3.75,71572.8,-22.77,-28.43,-27.71,0,*65
1519696886.06,61492,3.75,71568.3,-22.77,-28.53,-27.83,0,*6A
1519696887.34,61493,3.75,71574.3,-22.77,-28.53,-27.83,0,*6B
1519696888.63,61494,3.69,71574.3,-22.77,-28.43,-27.83,0,*6D
1519696889.91,61495,3.75,71576.3,-22.77,-28.53,-27.83,0,*6D
1519696891.16,61496,3.75,71578.5,-22.77,-28.53,-27.71,0,*63
1519696892.43,61497,3.69,71576.8,-22.77,-28.53,-27.83,0,*6F
1519696893.73,61498,3.75,71578.8,-22.77,-28.59,-27.83,0,*6A
1519696895.0,61499,3.69,71576.5,-22.81,-28.63,-27.89,0,*61
1519696896.28,61500,3.75,71580.0,-22.81,-28.59,-27.89,0,*69
1519696897.57,61501,3.75,71580.0,-22.77,-28.43,-27.83,0,*60
1519696898.85,61502,3.75,71576.0,-22.77,-28.53,-27.83,0,*62
1519696900.14,61503,3.75,71568.0,-22.77,-28.43,-27.83,0,*62
1519696901.42,61504,3.69,71586.3,-22.77,-28.53,-27.83,0,*64
1519696902.69,61505,3.69,71576.3,-22.77,-28.53,-27.83,0,*65
1519696903.97,61506,3.75,71572.5,-22.77,-28.53,-27.83,0,*66
1519696905.24,61507,3.75,71580.5,-22.81,-28.59,-27.93,0,*65
1519696906.51,61508,3.69,71578.3,-22.81,-28.59,-27.93,0,*6A
1519696907.78,61509,3.75,71580.8,-22.81,-28.59,-27.89,0,*60
1519696909.05,61510,3.75,71584.0,-22.81,-28.47,-27.89,0,*67
1519696910.3,61511,3.75,71582.0,-22.77,-28.53,-27.89,0,*6A
1519696911.57,61512,3.69,71578.0,-22.81,-28.47,-27.93,0,*6E
1519696912.84,61513,3.69,71574.5,-22.81,-28.59,-27.77,0,*6A
1519696914.11,61514,3.69,71576.8,-22.77,-28.53,-27.83,0,*65
1519696915.39,61515,3.69,71586.0,-22.77,-28.53,-27.83,0,*64
1519696916.68,61516,3.75,71576.5,-22.77,-28.43,-27.83,0,*66
1519696917.96,61517,3.69,71572.8,-22.77,-28.53,-27.83,0,*66
1519696919.23,61518,3.75,71564.8,-22.77,-28.53,-27.83,0,*69
1519696920.5,61519,3.69,71572.8,-22.81,-28.47,-27.89,0,*6E
1519696921.79,61520,3.75,71588.0,-22.77,-28.43,-27.83,0,*63
1519696923.09,61521,3.69,71580.5,-22.77,-28.43,-27.83,0,*62
1519696924.38,61522,3.69,71576.3,-22.77,-28.43,-27.83,0,*61
1519696925.66,61523,3.69,71564.5,-22.77,-28.53,-27.83,0,*61
1519696926.93,61524,3.69,71566.5,-22.81,-28.47,-27.89,0,*60
1519696928.2,61525,3.69,71572.0,-22.81,-28.59,-27.89,0,*6E
1519696929.47,61526,3.75,71574.3,-22.81,-28.47,-27.89,0,*62
1519696930.74,61527,3.75,71572.3,-22.81,-28.59,-27.89,0,*6C
1519696932.01,61528,3.75,71568.5,-22.81,-28.59,-27.93,0,*68
1519696933.26,61529,3.75,71564.0,-22.77,-28.53,-27.89,0,*61
1519696934.51,61530,3.75,71570.0,-22.77,-28.53,-27.89,0,*69
1519696935.81,61531,3.69,71566.3,-22.77,-28.43,-27.83,0,*63
1519696937.1,61532,3.69,71568.0,-22.77,-28.43,-27.83,0,*60
1519696938.35,61533,3.69,71564.8,-22.77,-28.53,-27.77,0,*6B
1519696939.6,61534,3.69,71572.8,-22.77,-28.53,-27.89,0,*6D
1519696940.88,61535,3.69,71568.5,-22.77,-28.53,-28.05,0,*67
1519696942.18,61536,3.69,71568.3,-22.77,-28.59,-28.05,0,*6E
1519696943.46,61537,3.75,71572.8,-22.77,-28.69,-28.05,0,*6C
1519696944.74,61538,3.75,71574.3,-22.77,-28.69,-27.99,0,*69
1519696946.01,61539,3.75,71578.3,-22.77,-28.69,-28.05,0,*62
1519696947.31,61540,3.75,71576.8,-22.81,-28.63,-28.05,0,*6F
1519696948.58,61541,3.75,71572.3,-22.81,-28.59,-27.93,0,*67
1519696949.85,61542,3.75,71576.5,-22.81,-28.59,-27.93,0,*64
1519696951.16,61543,3.75,71572.0,-22.81,-28.59,-28.05,0,*65
1519696952.42,61544,3.75,71580.3,-22.81,-28.75,-27.93,0,*6C
1519696953.7,61545,3.69,71578.8,-22.81,-28.59,-27.93,0,*63
1519696954.97,61546,3.69,71570.5,-22.81,-28.63,-27.93,0,*69
1519696956.27,61547,3.75,71576.3,-22.81,-28.59,-28.05,0,*61
1519696957.57,61548,3.69,71572.8,-22.81,-28.59,-28.05,0,*6E
1519696958.87,61549,3.69,71568.5,-22.81,-28.59,-28.05,0,*6F
1519696960.17,61550,3.75,71568.3,-22.81,-28.63,-28.05,0,*6E
1519696961.45,61551,3.69,71566.8,-22.77,-28.69,-28.05,0,*6C
1519696962.73,61552,3.75,71568.3,-22.77,-28.85,-28.21,0,*6B
1519696964.03,61553,3.69,71570.3,-22.77,-28.75,-28.21,0,*65
1519696965.3,61554,3.69,71566.5,-22.81,-28.75,-28.31,0,*6A
1519696966.58,61555,3.69,71560.8,-22.81,-28.91,-28.31,0,*61
1519696967.86,61556,3.75,71562.5,-22.81,-28.79,-28.15,0,*62
1519696969.16,61557,3.69,71556.8,-22.81,-28.75,-28.09,0,*62
1519696970.46,61558,3.75,71558.8,-22.81,-28.63,-28.09,0,*6A
1519696971.75,61559,3.75,71562.0,-22.81,-28.75,-28.25,0,*62
1519696973.03,61560,3.75,71554.5,-22.81,-28.75,-28.15,0,*6B
1519696974.3,61561,3.69,71556.8,-22.81,-28.75,-28.15,0,*6A
1519696975.59,61562,3.75,71546.0,-22.81,-28.91,-28.31,0,*65
1519696976.87,61563,3.69,71554.0,-22.81,-28.91,-28.31,0,*64
1519696978.15,61564,3.69,71556.5,-22.81,-28.91,-28.31,0,*63
1519696979.45,61565,3.69,71560.3,-22.81,-28.79,-28.25,0,*61
1519696980.72,61566,3.75,71562.5,-22.81,-28.75,-28.15,0,*6D
1519696982.0,61567,3.69,71564.5,-22.81,-28.63,-28.15,0,*6B
1519696983.28,61568,3.69,71560.5,-22.81,-28.75,-28.15,0,*63
1519696984.57,61569,3.69,71556.8,-22.81,-28.75,-28.09,0,*6F
1519696985.85,61570,3.69,71568.8,-22.81,-28.75,-28.15,0,*6A
1519696987.13,61571,3.75,71572.3,-22.81,-28.63,-28.15,0,*6C
1519696988.43,61572,3.75,71576.3,-22.81,-28.63,-28.25,0,*6C
1519696989.7,61573,3.75,71564.8,-22.81,-28.63,-28.15,0,*6E
1519696991.01,61574,3.75,71570.0,-22.81,-28.63,-28.25,0,*6A
1519696992.28,61575,3.75,71572.5,-22.81,-28.75,-28.31,0,*69
1519696993.58,61576,3.75,71572.0,-22.81,-28.63,-28.25,0,*68
1519696994.88,61577,3.69,71574.8,-22.81,-28.59,-28.25,0,*60
1519696996.16,61578,3.69,71572.8,-22.81,-28.63,-28.15,0,*65
1519696997.44,61579,3.69,71572.3,-22.81,-28.63,-28.15,0,*64
1519696998.74,61580,3.75,71568.8,-22.81,-28.75,-28.25,0,*66
1519697000.02,61581,3.69,71568.5,-22.81,-28.63,-28.15,0,*63
1519697001.32,61582,3.69,71578.8,-22.81,-28.63,-28.25,0,*63
1519697002.62,61583,3.75,71580.8,-22.81,-28.63,-28.25,0,*62
1519697003.92,61584,3.69,71568.5,-22.81,-28.63,-28.25,0,*65
1519697005.22,61585,3.69,71576.0,-22.81,-28.59,-28.25,0,*6D
1519697006.5,61586,3.69,71576.3,-22.81,-28.59,-28.15,0,*6D
1519697007.78,61587,3.69,71566.0,-22.81,-28.63,-28.31,0,*63
1519697009.08,61588,3.75,71580.3,-22.81,-28.63,-28.25,0,*69
1519697010.35,61589,3.69,71582.3,-22.81,-28.75,-28.15,0,*6C
1519697011.63,61590,3.69,71580.5,-22.81,-28.59,-28.15,0,*6A
1519697012.93,61591,3.69,71574.8,-22.81,-28.59,-28.09,0,*66
1519697014.21,61592,3.69,71568.8,-22.81,-28.59,-28.15,0,*68
1519697015.48,61593,3.69,71566.8,-22.81,-28.47,-28.15,0,*66
1519697016.75,61594,3.69,71568.0,-22.81,-28.59,-28.15,0,*6E
1519697018.03,61595,3.69,71578.0,-22.81,-28.47,-28.15,0,*60
1519697019.3,61596,3.69,71574.8,-22.81,-28.59,-28.15,0,*6C
1519697020.6,61597,3.69,71568.8,-22.81,-28.59,-28.25,0,*6E
1519697021.88,61598,3.69,71574.3,-22.81,-28.63,-28.31,0,*6D
1519697023.18,61599,3.69,71566.8,-22.81,-28.59,-28.25,0,*60
1519697024.49,61600,3.69,71568.8,-22.81,-28.59,-28.25,0,*63
1519697025.79,61601,3.69,71564.3,-22.81,-28.59,-28.25,0,*62
1519697027.08,61602,3.69,71570.0,-22.81,-28.47,-28.25,0,*6E
1519697028.38,61603,3.75,71568.8,-22.81,-28.59,-28.25,0,*60
1519697029.68,61604,3.69,71568.8,-22.81,-28.47,-28.25,0,*68
1519697030.95,61605,3.69,71562.0,-22.81,-28.47,-28.15,0,*6A
1519697032.22,61606,3.69,71566.8,-22.81,-28.47,-28.15,0,*69
1519697033.49,61607,3.69,71568.0,-22.81,-28.47,-28.15,0,*68
1519697034.79,61608,3.69,71564.0,-22.81,-28.47,-28.25,0,*64
1519697036.08,61609,3.69,71572.8,-22.81,-28.47,-28.25,0,*65
1519697037.35,61610,3.69,71572.5,-22.81,-28.47,-28.31,0,*68
1519697038.62,61611,3.69,71572.8,-22.81,-28.47,-28.31,0,*69
1519697039.92,61612,3.69,71568.8,-22.81,-28.47,-28.25,0,*6F
1519697041.2,61613,3.69,71570.8,-22.81,-28.59,-28.31,0,*64
1519697042.49,61614,3.69,71572.5,-22.81,-28.47,-28.25,0,*69
1519697043.79,61615,3.69,71570.0,-22.81,-28.47,-28.25,0,*68
1519697045.08,61616,3.75,71574.5,-22.81,-28.47,-28.25,0,*6B
1519697046.38,61617,3.69,71578.3,-22.81,-28.47,-28.25,0,*6A
1519697047.65,61618,3.69,71578.3,-22.81,-28.47,-28.31,0,*60
1519697048.94,61619,3.75,71582.0,-22.81,-28.47,-28.25,0,*64
1519697050.24,61620,3.75,71578.8,-22.81,-28.47,-28.25,0,*6E
1519697051.51,61621,3.69,71576.0,-22.81,-28.47,-28.31,0,*6A
1519697052.8,61622,3.75,71580.0,-22.81,-28.47,-28.25,0,*6C
1519697054.1,61623,3.69,71572.8,-22.81,-28.47,-28.25,0,*6D
1519697055.39,61624,3.69,71574.8,-22.81,-28.47,-28.43,0,*6A
1519697056.67,61625,3.69,71572.8,-22.81,-28.59,-28.31,0,*61
1519697057.96,61626,3.69,71572.5,-22.81,-28.47,-28.25,0,*68
1519697059.24,61627,3.69,71570.8,-22.81,-28.59,-28.31,0,*63
1519697060.51,61628,3.69,71578.0,-22.81,-28.47,-28.31,0,*63
1519697061.79,61629,3.69,71574.5,-22.81,-28.43,-28.31,0,*66
1519697063.08,61630,3.69,71574.5,-22.81,-28.43,-28.25,0,*6B
1519697064.36,61631,3.69,71574.8,-22.81,-28.31,-28.25,0,*6F
1519697065.66,61632,3.69,71576.0,-22.77,-28.25,-28.21,0,*64
1519697066.96,61633,3.69,71574.5,-22.81,-28.43,-28.25,0,*68
1519697068.23,61634,3.69,71572.3,-22.81,-28.43,-28.31,0,*6A
1519697069.51,61635,3.69,71572.8,-22.81,-28.31,-28.25,0,*6B
1519697070.79,61636,3.69,71582.0,-22.77,-28.37,-28.21,0,*63
1519697072.06,61637,3.69,71574.3,-22.81,-28.31,-28.25,0,*69
1519697073.31,61638,3.69,71576.8,-22.81,-28.31,-28.31,0,*63
1519697074.58,61639,3.69,71572.8,-22.81,-28.31,-28.25,0,*67
1519697075.86,61640,3.69,71570.5,-22.81,-28.43,-28.31,0,*69
1519697077.13,61641,3.69,71578.3,-22.81,-28.31,-28.25,0,*68
1519697078.41,61642,3.69,71578.5,-22.81,-28.31,-28.25,0,*6B
1519697079.68,61643,3.69,71576.3,-22.81,-28.15,-28.25,0,*6C
1519697080.96,61644,3.69,71568.3,-22.81,-28.25,-28.15,0,*6B
1519697082.26,61645,3.69,71572.3,-22.81,-28.25,-28.25,0,*69
1519697083.57,61646,3.69,71570.5,-22.81,-28.25,-28.25,0,*6A
1519697084.85,61647,3.69,71576.3,-22.81,-28.25,-28.15,0,*68
1519697086.13,61648,3.69,71578.0,-22.81,-28.25,-28.15,0,*67
1519697087.38,61649,3.69,71582.3,-22.81,-28.15,-28.15,0,*65
1519697088.68,61650,3.69,71584.5,-22.81,-28.25,-28.09,0,*63
1519697089.98,61651,3.69,71580.0,-22.81,-28.25,-28.25,0,*6C
1519697091.23,61652,3.69,71574.8,-22.81,-28.31,-28.15,0,*69
1519697092.51,61653,3.69,71576.8,-22.81,-28.25,-28.15,0,*6D
1519697093.76,61654,3.69,71578.5,-22.81,-28.15,-28.15,0,*69
1519697095.06,61655,3.69,71576.5,-22.81,-28.25,-28.09,0,*66
1519697096.31,61656,3.69,71572.8,-22.81,-28.15,-28.15,0,*6B
1519697097.59,61657,3.69,71576.8,-22.81,-28.25,-28.15,0,*69
1519697098.84,61658,3.69,71572.3,-22.81,-28.15,-28.15,0,*65
1519697100.12,61659,3.69,71580.8,-22.81,-28.25,-28.15,0,*67
1519697101.42,61660,3.69,71584.8,-22.81,-28.25,-28.25,0,*6E
1519697102.69,61661,3.69,71578.8,-22.81,-28.31,-28.25,0,*6A
1519697103.94,61662,3.69,71576.5,-22.81,-28.31,-28.15,0,*6A
1519697105.19,61663,3.69,71582.5,-22.81,-28.15,-28.15,0,*6D
1519697106.5,61664,3.69,71578.8,-22.77,-28.21,-28.25,0,*67
1519697107.8,61665,3.69,71570.0,-22.77,-28.09,-28.25,0,*6C
1519697109.1,61666,3.69,71584.0,-22.77,-28.25,-28.21,0,*65
1519697110.41,61667,3.69,71576.5,-22.77,-28.21,-28.21,0,*60
1519697111.71,61668,3.69,71576.3,-22.77,-28.09,-28.09,0,*6F
1519697112.96,61669,3.69,71576.8,-22.81,-28.31,-28.31,0,*67
1519697114.26,61670,3.69,71580.8,-22.77,-28.21,-28.25,0,*62
1519697115.51,61671,3.69,71572.8,-22.75,-28.15,-28.21,0,*62
1519697116.81,61672,3.69,71578.0,-22.77,-28.09,-28.21,0,*6E
1519697118.11,61673,3.69,71582.0,-22.77,-28.21,-28.09,0,*6F
1519697119.41,61674,3.69,71576.3,-22.77,-28.09,-28.09,0,*62
1519697120.71,61675,3.69,71576.8,-22.77,-28.09,-28.25,0,*6D
1519697121.98,61676,3.69,71582.0,-22.75,-28.09,-28.21,0,*68
1519697123.26,61677,3.69,71576.8,-22.81,-28.25,-28.15,0,*6B
1519697124.54,61678,3.69,71576.3,-22.81,-28.25,-28.31,0,*62
1519697125.85,61679,3.69,71578.5,-22.77,-28.21,-28.21,0,*6F
1519697127.1,61680,3.69,71578.0,-22.75,-28.05,-28.15,0,*6A
1519697128.41,61681,3.69,71578.5,-22.77,-28.21,-28.21,0,*68
1519697129.71,61682,3.69,71576.3,-22.77,-28.09,-28.21,0,*61
1519697131.01,61683,3.69,71570.0,-22.77,-28.09,-28.21,0,*60
1519697132.31,61684,3.69,71578.0,-22.77,-28.09,-28.09,0,*6D
1519697133.61,61685,3.69,71574.5,-22.77,-28.05,-28.09,0,*60
1519697134.91,61686,3.69,71576.3,-22.77,-28.09,-28.21,0,*65
1519697136.21,61687,3.69,71576.5,-22.77,-28.21,-28.25,0,*6A
1519697137.52,61688,3.69,71574.5,-22.77,-28.21,-28.21,0,*61
1519697138.82,61689,3.69,71576.3,-22.77,-28.21,-28.25,0,*64
1519697140.07,61690,3.69,71566.5,-22.75,-28.15,-28.21,0,*6D
1519697141.38,61691,3.69,71572.3,-22.77,-28.25,-28.25,0,*69
1519697142.62,61692,3.69,71570.3,-22.75,-28.25,-28.37,0,*6B
1519697143.9,61693,3.69,71572.5,-22.77,-28.37,-28.43,0,*68
1519697145.17,61694,3.69,71562.5,-22.77,-28.53,-28.59,0,*66
1519697146.45,61695,3.69,71568.3,-22.77,-28.37,-28.43,0,*6E
1519697147.74,61696,3.69,71566.3,-22.81,-28.43,-28.59,0,*6C
1519697149.03,61697,3.69,71566.8,-22.81,-28.59,-28.75,0,*68
1519697150.34,61698,3.69,71572.0,-22.81,-28.59,-28.59,0,*69
1519697151.63,61699,3.69,71574.5,-22.81,-28.43,-28.59,0,*63
1519697152.93,61700,3.69,71568.3,-22.81,-28.43,-28.59,0,*62
1519697154.22,61701,3.69,71566.3,-22.81,-28.43,-28.59,0,*63
1519697155.52,61702,3.69,71570.0,-22.81,-28.43,-28.47,0,*6F
1519697156.81,61703,3.69,71564.5,-22.81,-28.43,-28.59,0,*61
1519697158.11,61704,3.69,71572.0,-22.81,-28.43,-28.59,0,*66
1519697159.38,61705,3.69,71568.0,-22.81,-28.31,-28.47,0,*6D
1519697160.64,61706,3.69,71570.0,-22.81,-28.15,-28.43,0,*6C
1519697161.91,61707,3.69,71570.3,-22.81,-28.15,-28.47,0,*69
1519697163.21,61708,3.69,71570.3,-22.81,-28.25,-28.25,0,*61
1519697164.48,61709,3.69,71562.5,-22.81,-28.15,-28.43,0,*63
1519697165.73,61710,3.69,71564.5,-22.81,-28.15,-28.31,0,*6E
1519697166.98,61711,3.69,71568.0,-22.81,-28.15,-28.31,0,*6F
1519697168.28,61712,3.69,71566.5,-22.81,-28.25,-28.43,0,*6A
1519697169.53,61713,3.69,71566.5,-22.81,-28.15,-28.31,0,*6D
1519697170.83,61714,3.69,71566.5,-22.81,-28.09,-28.25,0,*62
1519697172.13,61715,3.69,71572.5,-22.81,-28.05,-28.25,0,*6F
1519697173.41,61716,3.69,71570.8,-22.81,-28.09,-28.15,0,*63
1519697174.69,61717,3.69,71570.0,-22.81,-28.05,-28.15,0,*6E
1519697175.99,61718,3.69,71568.5,-22.81,-28.05,-28.09,0,*6C
1519697177.24,61719,3.69,71568.3,-22.81,-27.93,-28.15,0,*60
1519697178.52,61720,3.69,71570.5,-22.81,-28.05,-28.15,0,*6A
1519697179.82,61721,3.69,71574.3,-22.77,-27.99,-28.21,0,*6F
1519697181.1,61722,3.69,71568.5,-22.81,-28.05,-28.15,0,*68
1519697182.37,61723,3.69,71564.5,-22.81,-27.89,-28.09,0,*6F
1519697183.65,61724,3.69,71570.5,-22.81,-27.93,-28.09,0,*63
1519697184.92,61725,3.69,71566.8,-22.81,-27.93,-28.09,0,*62
1519697186.2,61726,3.69,71564.0,-22.81,-28.05,-28.15,0,*6C
1519697187.5,61727,3.69,71562.3,-22.81,-28.09,-28.25,0,*62
1519697188.77,61728,3.69,71564.8,-22.81,-28.15,-28.25,0,*60
1519697190.07,61729,3.69,71564.8,-22.77,-28.09,-28.25,0,*65
1519697191.34,61730,3.69,71570.5,-22.77,-28.09,-28.37,0,*6E
1519697192.64,61731,3.69,71566.5,-22.77,-28.09,-28.21,0,*68
1519697193.94,61732,3.69,71570.3,-22.77,-27.99,-28.25,0,*69
1519697195.25,61733,3.69,71560.8,-22.77,-28.05,-28.25,0,*62
1519697196.55,61734,3.69,71562.8,-22.77,-28.09,-28.21,0,*6D
1519697197.85,61735,3.69,71560.8,-22.77,-28.09,-28.21,0,*6C
1519697199.15,61736,3.69,71560.5,-22.77,-28.05,-28.09,0,*69
1519697200.45,61737,3.69,71560.5,-22.77,-28.05,-28.09,0,*68
1519697201.75,61738,3.69,71564.8,-22.77,-27.99,-28.05,0,*61
1519697203.05,61739,3.69,71570.5,-22.81,-28.09,-28.25,0,*6D
1519697204.33,61740,3.69,71564.8,-22.81,-28.05,-28.15,0,*6C
1519697205.61,61741,3.69,71568.3,-22.81,-28.09,-28.15,0,*61
1519697206.91,61742,3.69,71566.5,-22.81,-28.05,-28.25,0,*6D
1519697208.19,61743,3.69,71562.5,-22.75,-28.05,-28.21,0,*63
1519697209.47,61744,3.69,71570.5,-22.81,-28.05,-28.15,0,*68
1519697210.77,61745,3.69,71564.0,-22.77,-28.05,-28.09,0,*6D
1519697212.07,61746,3.69,71564.3,-22.77,-28.05,-28.09,0,*6E
1519697213.37,61747,3.69,71568.8,-22.77,-28.21,-28.21,0,*63
1519697214.68,61748,3.69,71564.8,-22.77,-28.21,-28.21,0,*6C
1519697215.98,61749,3.69,71566.0,-22.77,-28.09,-28.25,0,*63
1519697217.29,61750,3.69,71558.3,-22.77,-28.25,-28.25,0,*65
1519697218.56,61751,3.69,71560.8,-22.77,-28.25,-28.37,0,*67
1519697219.83,61752,3.69,71564.8,-22.81,-28.31,-28.43,0,*6B
1519697221.1,61753,3.69,71566.5,-22.81,-28.31,-28.43,0,*6A
1519697222.38,61754,3.69,71568.8,-22.81,-28.25,-28.31,0,*6D
1519697223.63,61755,3.69,71568.5,-22.81,-28.15,-28.31,0,*6F
1519697224.9,61756,3.69,71570.3,-22.77,-28.09,-28.37,0,*6E
1519697226.2,61757,3.69,71566.0,-22.77,-28.21,-28.43,0,*66
1519697227.49,61758,3.69,71560.3,-22.81,-28.43,-28.43,0,*64
1519697228.76,61759,3.69,71566.8,-22.81,-28.31,-28.43,0,*60
1519697230.03,61760,3.69,71564.8,-22.81,-28.31,-28.43,0,*6A
1519697231.3,61761,3.69,71560.3,-22.81,-28.31,-28.47,0,*6F
1519697232.59,61762,3.69,71562.5,-22.81,-28.43,-28.43,0,*6D
1519697233.86,61763,3.69,71562.8,-22.81,-28.31,-28.47,0,*6D
1519697235.12,61764,3.69,71558.5,-22.81,-28.31,-28.47,0,*6A
1519697236.4,61765,3.69,71564.3,-22.81,-28.31,-28.59,0,*64
1519697237.69,61766,3.69,71552.3,-22.81,-28.43,-28.59,0,*62
1519697238.97,61767,3.69,71560.3,-22.81,-28.31,-28.59,0,*66
1519697240.26,61768,3.69,71562.3,-22.81,-28.43,-28.59,0,*6C
1519697241.53,61769,3.69,71570.8,-22.81,-28.31,-28.59,0,*68
1519697242.83,61770,3.69,71566.0,-22.81,-28.43,-28.47,0,*6A
1519697244.09,61771,3.69,71554.8,-22.81,-28.31,-28.47,0,*6E
1519697245.36,61772,3.69,71576.0,-22.81,-28.31,-28.43,0,*69
1519697246.66,61773,3.69,71570.3,-22.81,-28.25,-28.47,0,*69
1519697247.93,61774,3.69,71566.0,-22.81,-28.31,-28.47,0,*6B
1519697249.23,61775,3.69,71566.3,-22.81,-28.25,-28.43,0,*6B
1519697250.49,61776,3.69,71574.5,-22.81,-28.15,-28.43,0,*6B
1519697251.79,61777,3.69,71568.3,-22.81,-28.25,-28.43,0,*69
1519697253.06,61778,3.69,71564.0,-22.81,-28.31,-28.47,0,*67
1519697254.33,61779,3.69,71566.8,-22.81,-28.31,-28.47,0,*66
1519697255.6,61780,3.69,71566.0,-22.81,-28.15,-28.47,0,*66
1519697256.86,61781,3.69,71560.3,-22.81,-28.15,-28.43,0,*63
1519697258.16,61782,3.69,71564.3,-22.81,-28.25,-28.47,0,*67
1519697259.43,61783,3.69,71568.3,-22.81,-28.15,-28.47,0,*65
1519697260.73,61784,3.69,71568.5,-22.81,-28.25,-28.47,0,*61
1519697262.0,61785,3.69,71558.8,-22.81,-28.15,-28.43,0,*67
1519697263.25,61786,3.69,71576.0,-22.81,-28.15,-28.31,0,*61
1519697264.52,61787,3.69,71568.0,-22.81,-28.09,-28.31,0,*6D
1519697265.8,61788,3.69,71572.0,-22.81,-28.09,-28.31,0,*62
1519697267.08,61789,3.69,71572.3,-22.81,-28.05,-28.31,0,*6F
1519697268.36,61790,3.69,71574.3,-22.81,-28.09,-28.31,0,*6B
1519697269.66,61791,3.69,71578.5,-22.81,-28.05,-28.25,0,*63
1519697270.96,61792,3.69,71582.3,-22.81,-28.05,-28.25,0,*60
1519697272.26,61793,3.69,71576.8,-22.81,-28.09,-28.25,0,*6D
1519697273.56,61794,3.69,71574.5,-22.81,-28.09,-28.25,0,*6A
1519697274.87,61795,3.69,71576.0,-22.81,-28.05,-28.25,0,*67
1519697276.15,61796,3.69,71578.0,-22.81,-28.05,-28.31,0,*61
1519697277.45,61797,3.69,71572.5,-22.81,-28.09,-28.25,0,*69
1519697278.75,61798,3.69,71578.3,-22.81,-28.05,-28.25,0,*6A
1519697280.05,61799,3.69,71576.0,-22.81,-28.05,-28.09,0,*65
1519697281.3,61800,3.69,71576.3,-22.81,-27.89,-28.15,0,*6C
1519697282.55,61801,3.69,71576.5,-22.81,-27.93,-28.15,0,*66
1519697283.81,61802,3.69,71576.5,-22.81,-27.93,-28.15,0,*65
1519697285.06,61803,3.69,71576.8,-22.81,-27.93,-28.15,0,*64
1519697286.31,61804,3.69,71574.8,-22.81,-27.93,-28.15,0,*63
1519697287.56,61805,3.69,71576.3,-22.81,-27.93,-28.15,0,*62
1519697288.83,61806,3.69,71578.5,-22.81,-27.89,-28.09,0,*67
1519697290.1,61807,3.69,71576.3,-22.77,-27.89,-28.05,0,*63
1519697291.36,61808,3.69,71578.3,-22.81,-27.93,-28.15,0,*6F
1519697292.61,61809,3.69,71574.8,-22.81,-27.93,-28.15,0,*6E
1519697293.88,61810,3.69,71576.5,-22.77,-27.89,-28.21,0,*63
1519697295.15,61811,3.69,71578.3,-22.77,-27.89,-28.09,0,*68
1519697296.43,61812,3.69,71580.8,-22.77,-27.89,-28.21,0,*61
1519697297.7,61813,3.69,71578.5,-22.77,-27.89,-28.21,0,*60
1519697299.0,61814,3.69,71578.8,-22.77,-27.83,-28.21,0,*6D
1519697300.27,61815,3.69,71572.3,-22.77,-27.89,-28.09,0,*6C
1519697301.54,61816,3.69,71574.5,-22.81,-27.93,-28.09,0,*6D
1519697302.82,61817,3.69,71572.8,-22.81,-27.93,-28.09,0,*6C
1519697304.11,61818,3.69,71574.5,-22.77,-27.99,-28.05,0,*6C
1519697305.39,61819,3.69,71574.3,-22.77,-27.89,-28.09,0,*60
1519697306.66,61820,3.69,71570.3,-22.77,-27.89,-28.09,0,*6A
1519697307.93,61821,3.69,71576.5,-22.77,-27.89,-28.05,0,*67
1519697309.2,61822,3.69,71570.0,-22.77,-27.89,-28.09,0,*68
1519697310.49,61823,3.69,71570.0,-22.77,-27.83,-28.09,0,*63
1519697311.77,61824,3.69,71572.5,-22.77,-27.89,-28.21,0,*64